"Time","Temp","Dewpoint","Humidity","Pressure","Direction","Speed","Gust","Precip","PrecipRate"
"00:04:59","46.2","41.9","84.8","30.11","319","0","0","0.00","0.00"
"00:09:56","46.2","42.2","85.9","30.11","319","0","0","0.00","0.00"
"00:14:56","46.2","42.5","86.9","30.11","319","0","0","0.00","0.00"
"00:19:58","46","42","86","30.10","319","0","0","0.00","0.00"
"00:24:57","45.7","41.8","86","30.10","319","0","0","0.00","0.00"
"00:29:59","45.5","41.8","86.7","30.11","319","0","0","0.00","0.00"
"00:34:58","45.4","42","87.7","30.11","319","0","0","0.00","0.00"
"00:39:59","45.4","42.1","88","30.11","319","0","0","0.00","0.00"
"00:44:58","45.2","41.9","87.8","30.11","319","0","0","0.00","0.00"
"00:49:59","45.1","41.8","88","30.11","319","0","0","0.00","0.00"
"00:54:57","45","41.7","88.1","30.11","319","0","0","0.00","0.00"
"00:59:58","44.9","41.7","88.4","30.11","319","0","0","0.00","0.00"
"01:04:57","44.7","41.6","88.6","30.11","319","0","0","0.00","0.00"
"01:09:58","44.7","41.7","89","30.11","319","0","0","0.00","0.00"
"01:14:57","44.6","41.6","89","30.11","319","0","0","0.00","0.00"
"01:19:59","44.5","41.5","89","30.10","319","0","0","0.00","0.00"
"01:24:57","44.5","41.4","88.7","30.10","319","0","0","0.00","0.00"
"01:29:56","44.4","41.1","88","30.10","319","0","0","0.00","0.00"
"01:34:57","44.3","41","88","30.09","319","0","0","0.00","0.00"
"01:39:57","44.3","41","88","30.09","319","0","0","0.00","0.00"
"01:44:58","44.2","40.9","88","30.09","319","0","0","0.00","0.00"
"01:49:59","44.1","40.8","88","30.09","319","0","0","0.00","0.00"
"01:54:57","44","40.9","88.7","30.09","319","0","0","0.00","0.00"
"01:59:58","43.8","40.8","89","30.09","319","0","0","0.00","0.00"
"02:04:56","43.7","41","89.8","30.09","319","0","0","0.00","0.00"
"02:09:58","43.7","41","90","30.09","319","0","0","0.00","0.00"
"02:14:57","43.6","40.9","90","30.09","319","0","0","0.00","0.00"
"02:19:59","43.6","40.9","90","30.09","319","0","0","0.00","0.00"
"02:24:57","43.5","40.8","90","30.09","319","0","0","0.00","0.00"
"02:29:59","43.5","40.8","90","30.09","319","0","0","0.00","0.00"
"02:34:57","43.5","40.8","90","30.08","319","0","0","0.00","0.00"
"02:39:52","43.5","40.8","90","30.08","319","0","0","0.00","0.00"
"02:44:58","43.4","40.7","90","30.09","319","0","0","0.00","0.00"
"02:49:59","43.4","40.6","89.8","30.09","319","0","0","0.00","0.00"
"02:54:56","43.2","40.4","89.6","30.09","319","0","0","0.00","0.00"
"02:59:58","43.2","40.5","90","30.09","319","0","0","0.00","0.00"
"03:04:56","43.1","40.4","90","30.09","319","0","0","0.00","0.00"
"03:09:58","43.1","40.3","89.4","30.09","319","0","0","0.00","0.00"
"03:14:58","43.2","40.2","89.2","30.09","319","0","0","0.00","0.00"
"03:19:56","43.1","40.2","89.1","30.08","319","0","0","0.00","0.00"
"03:24:58","43.1","40.1","89","30.08","319","0","0","0.00","0.00"
"03:29:56","43","40.1","89.3","30.09","319","0","0","0.00","0.00"
"03:34:57","42.9","40.2","90","30.09","319","0","0","0.00","0.00"
"03:39:56","42.8","40.1","90","30.09","319","0","0","0.00","0.00"
"03:44:58","42.7","40.3","90.9","30.09","319","0","0","0.00","0.00"
"03:49:56","42.5","40.1","91","30.09","319","0","0","0.00","0.00"
"03:54:57","42.3","39.9","91","30.09","319","0","0","0.00","0.00"
"03:59:59","42.2","39.8","91.2","30.09","319","0","0","0.00","0.00"
"04:04:58","42.1","39.9","91.9","30.07","319","0","0","0.00","0.00"
"04:09:59","42.2","40","92","30.07","319","0","0","0.00","0.00"
"04:14:58","42.1","39.9","92","30.08","319","0","0","0.00","0.00"
"04:19:56","42.1","39.9","92","30.08","319","0","0","0.00","0.00"
"04:24:57","42","39.8","92","30.08","319","0","0","0.00","0.00"
"04:29:59","41.9","39.7","92","30.08","319","0","0","0.00","0.00"
"04:34:56","41.7","39.5","92","30.07","319","0","0","0.00","0.00"
"04:39:55","41.6","39.4","92.1","30.07","319","0","0","0.00","0.00"
"04:44:57","41.6","39.7","93","30.07","319","0","0","0.00","0.00"
"04:49:59","41.8","39.9","93","30.07","319","0","0","0.00","0.00"
"04:54:56","41.9","40","93","30.07","319","0","0","0.00","0.00"
"04:59:57","41.9","40","93","30.07","319","0","0","0.00","0.00"
"05:04:56","41.9","40","93","30.07","319","0","0","0.00","0.00"
"05:09:57","41.9","40","93","30.07","319","0","0","0.00","0.00"
"05:14:57","41.8","39.9","93","30.07","319","0","0","0.00","0.00"
"05:19:57","41.8","39.9","93","30.06","319","0","0","0.00","0.00"
"05:24:57","41.7","39.8","93","30.06","319","0","0","0.00","0.00"
"05:29:58","41.9","40.1","93.4","30.07","319","0","0","0.00","0.00"
"05:34:56","42.1","40.5","94","30.07","319","0","0","0.00","0.00"
"05:39:56","42.2","40.4","93.3","30.07","319","0","0","0.00","0.00"
"05:44:56","42.2","40.3","93","30.07","319","0","0","0.00","0.00"
"05:49:58","42.2","40.3","93","30.07","319","0","0","0.00","0.00"
"05:54:59","42.2","40.3","93","30.07","319","0","0","0.00","0.00"
"05:59:56","42.2","40.3","93","30.07","319","0","0","0.00","0.00"
"06:04:58","42.3","40.2","92.4","30.07","319","0","0","0.00","0.00"
"06:09:56","42.2","40","92","30.07","319","0","0","0.00","0.00"
"06:14:57","42.2","40","92","30.08","319","0","0","0.00","0.00"
"06:19:59","42.2","40","92","30.08","319","0","0","0.00","0.00"
"06:24:58","42.1","39.9","92","30.08","319","0","0","0.00","0.00"
"06:29:56","42.1","39.9","92","30.08","319","0","0","0.00","0.00"
"06:34:58","42","39.8","92","30.07","319","0","0","0.00","0.00"
"06:39:58","41.9","39.8","92.2","30.07","319","0","0","0.00","0.00"
"06:44:56","42","40.1","93","30.07","319","0","0","0.00","0.00"
"06:49:57","42.2","40.3","93","30.07","319","0","0","0.00","0.00"
"06:54:59","42.2","40.3","93","30.07","319","0","0","0.00","0.00"
"06:59:56","42.4","40.5","93","30.08","319","0","0","0.00","0.00"
"07:04:58","42.5","40.6","93","30.08","319","0","0","0.00","0.00"
"07:09:59","42.9","41.2","93.9","30.08","319","0","0","0.00","0.00"
"07:14:57","43.3","41.7","94","30.08","319","0","0","0.00","0.00"
"07:19:58","44","42.4","94","30.08","319","0","0","0.00","0.00"
"07:24:59","44.7","42.6","92.4","30.08","319","0","0","0.00","0.00"
"07:29:58","45.2","42.4","90.1","30.08","319","0","0","0.00","0.00"
"07:34:57","45.6","42.6","89.3","30.08","319","0","0","0.00","0.00"
"07:39:56","46.1","43.1","89.3","30.08","319","0","0","0.00","0.00"
"07:44:57","46.6","42.9","87.1","30.08","319","0","0","0.00","0.00"
"07:49:57","47.2","43.4","86.8","30.08","319","0","0","0.00","0.00"
"07:54:59","47.9","43.8","85.9","30.08","319","0","0","0.00","0.00"
"07:59:57","48.6","43.6","82.6","30.09","319","0","0","0.00","0.00"
"08:04:58","49.3","42.6","77.4","30.09","319","0","0","0.00","0.00"
"08:09:56","50.1","43","76.7","30.09","319","0","0","0.00","0.00"
"08:14:58","50.7","43.3","75.8","30.09","295","0.1","3","0.00","0.00"
"08:19:59","51.1","43.4","74.8","30.09","304","1","4","0.00","0.00"
"08:24:59","51.6","43.7","74.4","30.09","0","1.6","3.5","0.00","0.00"
"08:29:59","52.2","43.7","72.8","30.09","12","0.8","3","0.00","0.00"
"08:34:56","52.9","44.8","73.7","30.09","325","0.6","2.3","0.00","0.00"
"08:39:58","53.4","44.2","70.7","30.09","263","1","3.5","0.00","0.00"
"08:44:59","53.9","44.7","71","30.09","231","1.3","3.5","0.00","0.00"
"08:49:59","54.3","44.7","70","30.08","229","0.7","2.3","0.00","0.00"
"08:54:56","54.7","45.1","70.1","30.08","224","0.2","3","0.00","0.00"
"08:59:57","55.4","46","70.5","30.08","182","0.9","3.5","0.00","0.00"
"09:04:59","56.4","46.2","68.6","30.08","182","1.1","3.5","0.00","0.00"
"09:09:56","57","46.3","67.5","30.08","182","1.4","3.5","0.00","0.00"
"09:14:59","57.4","46.1","66.1","30.08","182","0.9","2.3","0.00","0.00"
"09:19:58","58","47.1","67","30.08","182","0.6","2.3","0.00","0.00"
"09:24:59","58.6","47.7","66.9","30.08","182","1","3","0.00","0.00"
"09:29:59","59.1","47.4","65.1","30.08","183","1.5","3.5","0.00","0.00"
"09:34:59","59.5","47.6","64.5","30.07","182","0.4","2.3","0.00","0.00"
"09:39:57","60.5","48.2","63.8","30.07","180","0.7","2.3","0.00","0.00"
"09:44:57","61.4","48.8","63.3","30.07","124","1.1","4","0.00","0.00"
"09:49:56","62.4","49.5","62.6","30.07","94","0.8","3.5","0.00","0.00"
"09:54:57","63.1","48.6","59.2","30.07","95","1.3","4","0.00","0.00"
"09:59:57","63.6","49","59","30.07","103","2.5","4","0.00","0.00"
"10:04:58","63.8","49.5","59.9","30.06","98","2.2","4","0.00","0.00"
"10:09:55","64.1","50.1","60.3","30.06","97","1.9","4","0.00","0.00"
"10:14:57","64.6","50.7","60.7","30.06","96","1.5","4","0.00","0.00"
"10:19:57","65.2","50.6","59.1","30.06","92","1.1","3.5","0.00","0.00"
"10:24:57","65.9","51.1","58.8","30.06","100","0.9","3.5","0.00","0.00"
"10:29:57","66.6","50.6","56.3","30.06","109","1.3","4","0.00","0.00"
"10:34:57","67.3","51.3","56.5","30.05","109","1","4","0.00","0.00"
"10:39:59","67.8","52.1","57.2","30.05","52","1","3.5","0.00","0.00"
"10:44:59","68.5","53","57.8","30.05","98","1.9","4","0.00","0.00"
"10:49:58","69","53.4","57.6","30.05","110","2.2","4","0.00","0.00"
"10:54:59","69.5","52.5","54.7","30.05","74","1.1","3.5","0.00","0.00"
"10:59:58","70.2","53.7","55.8","30.05","90","1.8","3.5","0.00","0.00"
"11:04:56","70.8","54.1","55.6","30.04","97","1.6","5","0.00","0.00"
"11:09:56","71.5","53.6","53.2","30.04","130","1.9","4.6","0.00","0.00"
"11:14:58","72","54.7","54.7","30.04","110","2.7","6","0.00","0.00"
"11:19:58","72.4","55.1","54.6","30.04","182","2.1","4","0.00","0.00"
"11:24:57","73.1","55.6","54.3","30.04","144","1.4","3.5","0.00","0.00"
"11:29:57","73.8","55.2","52.3","30.04","144","2.1","5","0.00","0.00"
"11:34:57","74.3","55","51","30.03","138","2.9","6","0.00","0.00"
"11:39:59","74.8","57.6","55.2","30.03","211","2.7","6","0.00","0.00"
"11:44:56","75.4","56","51","30.03","127","2.3","5","0.00","0.00"
"11:49:59","75.9","55.8","49.7","30.02","148","2.9","8","0.00","0.00"
"11:54:59","76.4","57.7","52.4","30.02","176","2.6","7","0.00","0.00"
"11:59:59","76.8","56","48.7","30.02","185","4.2","10.4","0.00","0.00"
"12:04:56","77","55.3","47.3","30.01","132","4","10.4","0.00","0.00"
"12:09:56","77.2","54.9","46.3","30.01","191","4.6","12","0.00","0.00"
"12:14:59","77.2","55.7","47.5","30.01","180","4","11.5","0.00","0.00"
"12:19:59","77.7","56.5","48.1","30.01","167","3","7","0.00","0.00"
"12:24:59","78.3","56.5","47.2","30.01","206","3.9","10.4","0.00","0.00"
"12:29:59","78.6","56.8","47.2","30.01","155","2.6","5.8","0.00","0.00"
"12:34:58","79","55.9","45.2","30.00","153","3.7","11.5","0.00","0.00"
"12:39:59","79.4","56.6","45.7","30.00","171","3.7","9.2","0.00","0.00"
"12:44:57","79.6","57.2","46.4","30.00","202","4.3","9.2","0.00","0.00"
"12:49:59","79.7","57","45.9","29.99","144","3.4","9","0.00","0.00"
"12:54:57","79.7","56","44.2","29.99","166","3.8","9.2","0.00","0.00"
"12:59:58","80","57.4","46.1","29.99","202","4.2","10.4","0.00","0.00"
"13:04:59","80","56.2","44.1","29.99","181","4.3","13","0.00","0.00"
"13:09:59","80","56.3","44.2","29.99","182","4.9","12.7","0.00","0.00"
"13:14:57","80.2","57","45.2","29.99","158","3.3","8","0.00","0.00"
"13:19:56","80.5","56","43.1","29.98","175","3.9","11","0.00","0.00"
"13:24:59","80.6","54.8","41.1","29.98","176","4.5","11","0.00","0.00"
"13:29:57","80.9","57","44","29.98","217","3.8","13","0.00","0.00"
"13:34:56","81.2","56.2","42.3","29.98","187","5","12.7","0.00","0.00"
"13:39:57","81.3","55.6","41.4","29.98","190","5.4","13","0.00","0.00"
"13:44:59","81.4","55.9","41.8","29.98","194","6.2","11.5","0.00","0.00"
"13:49:57","81.6","56.9","43","29.97","203","4.8","10.4","0.00","0.00"
"13:54:59","81.8","56.8","42.5","29.97","208","6.6","14","0.00","0.00"
"13:59:57","81.8","55.2","40.2","29.97","178","5.3","14","0.00","0.00"
"14:04:57","82.2","57.2","42.7","29.96","206","5.5","11.5","0.00","0.00"
"14:09:56","82.4","57.1","42.2","29.96","195","5.6","12","0.00","0.00"
"14:14:57","82.5","56.9","41.8","29.96","184","5.2","12","0.00","0.00"
"14:19:56","82.7","56.5","41","29.96","176","4.9","12","0.00","0.00"
"14:24:58","83","56.9","41.1","29.96","184","5.2","12","0.00","0.00"
"14:29:56","83.1","56.3","40","29.96","197","5.7","13","0.00","0.00"
"14:34:59","83.2","58.2","42.7","29.95","214","4.3","10.4","0.00","0.00"
"14:39:56","83.6","58.8","43.2","29.95","191","4.3","9.2","0.00","0.00"
"14:44:59","83.8","55.6","38.1","29.95","177","3.9","11","0.00","0.00"
"14:49:58","83.9","58","41.5","29.94","193","5.5","13","0.00","0.00"
"14:54:57","83.9","56.6","39.4","29.94","219","6.8","14","0.00","0.00"
"14:59:56","83.6","56.5","39.6","29.94","214","6.5","13.8","0.00","0.00"
"15:04:56","83.7","56.1","39","29.94","185","5.8","11.5","0.00","0.00"
"15:09:57","84","58.1","41.5","29.94","202","4.2","8","0.00","0.00"
"15:14:59","84.1","56.5","39.1","29.94","188","4.2","12","0.00","0.00"
"15:19:58","83.8","56.9","40","29.94","206","4.4","11.5","0.00","0.00"
"15:24:57","83.7","57.2","40.6","29.94","215","5","10.4","0.00","0.00"
"15:29:56","83.5","56.7","40.2","29.94","198","4","7","0.00","0.00"
"15:34:56","83.5","57.2","40.8","29.93","196","5.4","11.5","0.00","0.00"
"15:39:59","83.9","57.3","40.5","29.93","188","5.8","11","0.00","0.00"
"15:44:59","84.1","58.1","41.3","29.93","213","5.3","12","0.00","0.00"
"15:49:59","83.9","56.2","39","29.92","189","6.5","11.5","0.00","0.00"
"15:54:56","84.2","57","39.7","29.92","180","5","10.4","0.00","0.00"
"15:59:57","84.6","57.8","40.2","29.92","209","4.9","11","0.00","0.00"
"16:04:58","84.8","57.4","39.4","29.92","189","4.8","11.5","0.00","0.00"
"16:09:57","85","57.1","38.9","29.92","159","4.5","11.5","0.00","0.00"
"16:14:56","84.9","57.8","39.9","29.92","209","5.4","11.5","0.00","0.00"
"16:19:59","84.8","57","39","29.91","183","3.3","10.4","0.00","0.00"
"16:24:59","84.6","57.9","40.4","29.91","203","5.8","11.5","0.00","0.00"
"16:29:59","84.3","58.4","41.7","29.91","205","5.2","11","0.00","0.00"
"16:34:56","84.1","57.4","40.3","29.91","183","4.2","11.5","0.00","0.00"
"16:39:57","83.9","57.6","41","29.91","208","5.1","11.5","0.00","0.00"
"16:44:57","83.8","57.2","40.5","29.91","185","5.1","12","0.00","0.00"
"16:49:56","84.1","57.1","39.9","29.91","188","4.5","11.5","0.00","0.00"
"16:54:56","84.5","57.6","40.1","29.91","188","5.4","11.5","0.00","0.00"
"16:59:56","84.9","57.8","39.8","29.91","186","6.6","13","0.00","0.00"
"17:04:56","85","57.3","39","29.91","201","6.3","13","0.00","0.00"
"17:09:56","84.9","57","38.6","29.91","196","5.7","12.7","0.00","0.00"
"17:14:59","85.2","57.5","39.2","29.91","186","5.4","10.4","0.00","0.00"
"17:19:56","85.4","57.6","39.1","29.91","180","4.5","7","0.00","0.00"
"17:24:56","85.4","58.1","39.8","29.91","189","4.3","13","0.00","0.00"
"17:29:56","85.2","57.2","38.6","29.91","201","5.5","12","0.00","0.00"
"17:34:56","85.2","57","38.4","29.90","201","6.1","14","0.00","0.00"
"17:39:57","85.1","56.6","38","29.90","195","5.4","11.5","0.00","0.00"
"17:44:57","85","57.7","39.6","29.91","198","4.6","12","0.00","0.00"
"17:49:56","85","57","38.5","29.91","196","5.7","11.5","0.00","0.00"
"17:54:56","84.9","56.8","38.5","29.91","199","4.9","10.4","0.00","0.00"
"17:59:59","85","57","38.7","29.91","185","4.4","11.5","0.00","0.00"
"18:04:56","85.1","57","38.5","29.90","179","5.5","13","0.00","0.00"
"18:09:55","85","56.6","38","29.90","205","5.1","11.5","0.00","0.00"
"18:14:58","84.8","56.4","38.1","29.90","207","5.7","11.5","0.00","0.00"
"18:19:59","84.7","57.2","39.3","29.90","189","3.7","10.4","0.00","0.00"
"18:24:56","84.8","56.5","38.2","29.90","190","4.2","10","0.00","0.00"
"18:29:56","84.8","56.5","38.2","29.90","177","3.8","7","0.00","0.00"
"18:34:57","84.8","56.7","38.5","29.90","178","2.6","5","0.00","0.00"
"18:39:56","84.8","57.7","39.9","29.90","178","2.1","4","0.00","0.00"
"18:44:56","84.5","56.9","39.1","29.90","187","3.1","10.4","0.00","0.00"
"18:49:58","84","56.1","38.7","29.90","166","3.1","10.4","0.00","0.00"
"18:54:57","83.7","56.3","39.3","29.90","155","2.4","6.9","0.00","0.00"
"18:59:55","83.4","56.6","40.2","29.90","186","2.7","9.2","0.00","0.00"
"19:04:57","82.8","56.5","40.7","29.89","184","2.6","4.6","0.00","0.00"
"19:09:58","82.5","56.8","41.7","29.89","185","1.4","3.5","0.00","0.00"
"19:14:56","82.1","57","42.4","29.89","190","1.8","7","0.00","0.00"
"19:19:56","81.8","56.6","42.1","29.89","191","3.3","6.9","0.00","0.00"
"19:24:58","81.5","56.8","42.8","29.89","198","2.9","6","0.00","0.00"
"19:29:57","81.2","56.9","43.6","29.90","186","2.5","6","0.00","0.00"
"19:34:57","80.8","56.8","43.9","29.90","187","2.9","5","0.00","0.00"
"19:39:59","80.6","56.5","43.6","29.90","179","3.1","6","0.00","0.00"
"19:44:55","80.5","56.6","44","29.90","179","2.5","5","0.00","0.00"
"19:49:56","80.4","56.5","44","29.89","185","2.1","6","0.00","0.00"
"19:54:59","80.1","56.3","44.2","29.89","189","2.2","5","0.00","0.00"
"19:59:56","79.8","56.6","45","29.90","185","1.2","5","0.00","0.00"
"20:04:58","79.5","56.3","45","29.90","172","2","5","0.00","0.00"
"20:09:58","79.3","56.2","45.3","29.90","168","0.9","3","0.00","0.00"
"20:14:59","79","56.4","46","29.90","169","1.1","3.5","0.00","0.00"
"20:19:57","78.7","56.3","46.2","29.90","161","1.2","3.5","0.00","0.00"
"20:24:58","78.3","56.4","47","29.90","153","1.4","4","0.00","0.00"
"20:29:56","78.1","56.2","47","29.90","154","1.4","4","0.00","0.00"
"20:34:58","77.9","56.4","47.7","29.90","162","1.9","5","0.00","0.00"
"20:39:58","77.6","56.5","48.2","29.90","159","1.6","4","0.00","0.00"
"20:44:56","77.3","56.6","48.9","29.90","163","1.4","3.5","0.00","0.00"
"20:49:57","77","56.5","49.2","29.90","169","1.5","4","0.00","0.00"
"20:54:59","76.6","56.6","50","29.90","173","1.3","4","0.00","0.00"
"20:59:57","76.3","56.5","50.4","29.90","181","1.7","4","0.00","0.00"
"21:04:58","76","56.6","51.2","29.90","176","1.8","5","0.00","0.00"
"21:09:59","75.6","56.6","51.8","29.90","177","1.7","5","0.00","0.00"
"21:14:56","75.3","56.5","52","29.90","180","1.2","3.5","0.00","0.00"
"21:19:57","75.1","56.4","52.3","29.90","182","1.8","5","0.00","0.00"
"21:24:59","74.7","56.4","53","29.90","180","2.7","5","0.00","0.00"
"21:29:56","74.6","56.3","53","29.90","200","2.7","7","0.00","0.00"
"21:34:57","74.5","56.3","53.2","29.90","191","2.2","6.9","0.00","0.00"
"21:39:57","74.2","56.2","53.3","29.90","174","2.2","4","0.00","0.00"
"21:44:59","74.1","55.9","53","29.90","172","1.8","5","0.00","0.00"
"21:49:57","74","56","53.4","29.90","193","3.2","9.2","0.00","0.00"
"21:54:58","74","56","53.6","29.90","192","3.2","7","0.00","0.00"
"21:59:59","73.9","56.1","53.7","29.90","195","2.9","5","0.00","0.00"
"22:04:57","73.8","55.9","53.6","29.90","182","2.7","9.2","0.00","0.00"
"22:09:57","73.8","55.9","53.7","29.90","181","2.6","6","0.00","0.00"
"22:14:58","73.7","56","54","29.91","189","2.3","5","0.00","0.00"
"22:19:55","73.5","56.1","54.6","29.91","197","1.8","4","0.00","0.00"
"22:24:57","73.3","56.1","54.9","29.91","175","2.4","4","0.00","0.00"
"22:29:58","73","56.3","55.7","29.91","209","1.7","3.5","0.00","0.00"
"22:34:56","72.7","56.2","56.1","29.90","183","2.1","4","0.00","0.00"
"22:39:55","72.5","56","56.2","29.90","179","1.8","5","0.00","0.00"
"22:44:57","72.4","56.2","56.8","29.91","186","1.7","5","0.00","0.00"
"22:49:59","72.2","56.2","57.2","29.91","187","1.3","3.5","0.00","0.00"
"22:54:56","72","56","57.3","29.91","184","1.6","4","0.00","0.00"
"22:59:57","71.8","55.8","57.2","29.91","199","2.1","6","0.00","0.00"
"23:04:54","71.7","56","57.6","29.91","178","1.6","4","0.00","0.00"
"23:09:59","71.6","56","58.1","29.91","178","0.9","3.5","0.00","0.00"
"23:14:59","71.3","56.1","58.8","29.91","178","0.4","2.3","0.00","0.00"
"23:19:59","71.1","56","59","29.91","178","0.1","1.2","0.00","0.00"
"23:24:57","70.9","56.1","59.5","29.91","178","0.2","2.3","0.00","0.00"
"23:29:58","70.7","55.9","59.6","29.92","178","0.5","2.3","0.00","0.00"
"23:34:56","70.5","55.9","60","29.92","178","0.1","1.2","0.00","0.00"
"23:39:59","70.3","56.1","60.7","29.92","178","0","1.2","0.00","0.00"
"23:44:56","70","55.9","61","29.92","178","0","1","0.00","0.00"
"23:49:56","69.6","55.8","61.5","29.91","178","0.1","1.2","0.00","0.00"
"23:54:57","69.2","55.8","62.3","29.91","178","0.3","2.3","0.00","0.00"
"23:59:59","68.8","55.8","63.4","29.91","178","0","1.2","0.00","0.00"
